Weather History for Whidbey Island, WA

Change the Weather History Date:

Sunday, May 11, 2014

  Actual Average Record
Temperature  
Mean Temperature 54 °F -  
Max Temperature 59 °F 55 °F 66 °F (1997)
Min Temperature 48 °F 42 °F 37 °F (2012)
Degree Days  
Heating Degree Days 12    
Growing Degree Days 4 (Base 50)    
Moisture  
Dew Point 47 °F    
Average Humidity 76    
Maximum Humidity 86    
Minimum Humidity 69    
Precipitation  
Precipitation 0.00 in - - ()
Sea Level Pressure  
Sea Level Pressure 30.33 in    
Wind  
Wind Speed 6 mph (WSW)    
Max Wind Speed 9 mph    
Max Gust Speed -    
Visibility 10 miles    
Events      
Averages and records for this station are not official NWS values.
T = Trace of Precipitation, MM = Missing Value Source: NWS Daily Summary

Daily Weather History Graph

Daily Weather History Graph

Search for Another Location

Airport:

Trip Planner

Search our weather history database for the weather conditions in past years. The results will help you decide how hot, cold, wet, or windy it might be!

Date:

Astronomy

May. 11, 2014 Rise Set
Actual Time 5:35 AM PDT 8:38 PM PDT
Civil Twilight 4:59 AM PDT 9:15 PM PDT
Nautical Twilight 4:11 AM PDT 10:03 PM PDT
Astronomical Twilight 3:13 AM PDT 11:03 PM PDT
Moon 5:26 PM PDT (5/11) 4:00 AM PDT (5/11)
Length of Visible Light 16h 16m
Length of Day
15h 03m
Waxing Gibbous, 90% of the Moon is Illuminated
May 11
Waxing Gibbous
May 14
Full
May 21
Last Quarter
May 28
New
Jun 5
First Quarter

Hourly Weather History & Observations

Time (PDT) Temp. Dew Point Humidity Pressure Visibility Wind Dir Wind Speed Gust Speed Precip Events Conditions
12:56 AM 53.1 °F 46.9 °F 80% 30.30 in 10.0 mi SW 9.2 mph - N/A   Mostly Cloudy
1:56 AM 53.1 °F 46.9 °F 80% 30.31 in 10.0 mi SW 9.2 mph - N/A   Mostly Cloudy
2:56 AM 53.1 °F 46.0 °F 77% 30.32 in 10.0 mi SW 8.1 mph - N/A   Mostly Cloudy
3:56 AM 53.1 °F 46.0 °F 77% 30.33 in 10.0 mi SW 5.8 mph - N/A   Mostly Cloudy
4:56 AM 52.0 °F 45.0 °F 77% 30.33 in 10.0 mi SW 3.5 mph - N/A   Mostly Cloudy
5:56 AM 48.0 °F 43.0 °F 83% 30.34 in 10.0 mi ESE 5.8 mph - N/A   Scattered Clouds
6:56 AM 50.0 °F 46.0 °F 86% 30.35 in 10.0 mi ESE 4.6 mph - N/A   Partly Cloudy
7:56 AM 54.0 °F 46.0 °F 75% 30.36 in 10.0 mi Calm Calm - N/A   Partly Cloudy
8:56 AM 55.0 °F 46.0 °F 72% 30.36 in 10.0 mi SW 3.5 mph - N/A   Partly Cloudy
9:56 AM 55.9 °F 46.9 °F 72% 30.37 in 10.0 mi Variable 3.5 mph - N/A   Partly Cloudy
10:56 AM 57.0 °F 46.9 °F 69% 30.37 in 10.0 mi Variable 4.6 mph - N/A   Partly Cloudy
11:56 AM 57.9 °F 48.0 °F 70% 30.36 in 10.0 mi West 6.9 mph - N/A   Partly Cloudy
12:56 PM 57.9 °F 48.9 °F 72% 30.35 in 10.0 mi West 8.1 mph - N/A   Partly Cloudy
1:56 PM 57.9 °F 48.9 °F 72% 30.35 in 10.0 mi West 8.1 mph - N/A   Scattered Clouds
2:56 PM 57.9 °F 48.9 °F 72% 30.34 in 10.0 mi West 8.1 mph - N/A   Scattered Clouds
3:56 PM 59.0 °F 50.0 °F 72% 30.33 in 10.0 mi WSW 8.1 mph - N/A   Scattered Clouds
4:56 PM 57.9 °F 48.9 °F 72% 30.32 in 10.0 mi West 6.9 mph - N/A   Scattered Clouds
5:56 PM 57.9 °F 48.0 °F 70% 30.31 in 10.0 mi West 5.8 mph - N/A   Mostly Cloudy
6:56 PM 57.0 °F 48.0 °F 72% 30.30 in 10.0 mi West 3.5 mph - N/A   Scattered Clouds
7:56 PM 54.0 °F 46.9 °F 77% 30.30 in 10.0 mi WSW 5.8 mph - N/A   Scattered Clouds
8:56 PM 54.0 °F 46.0 °F 75% 30.31 in 10.0 mi Calm Calm - N/A   Mostly Cloudy
9:56 PM 54.0 °F 48.0 °F 80% 30.33 in 10.0 mi SW 9.2 mph - N/A   Mostly Cloudy
10:56 PM 52.0 °F 46.0 °F 80% 30.33 in 10.0 mi Calm Calm - N/A   Mostly Cloudy
11:56 PM 50.0 °F 46.0 °F 86% 30.34 in 10.0 mi Calm Calm - N/A   Mostly Cloudy